Location: Newark
(23.3970°S, 47.6010°W)
Time: 14:32:20
(UTC+00:00)

Tiros 1 despin weight - Pass Details

Date: 23 February 2020
Orbit: 593 x 642 km, 48.2° (Epoch: 08 April)

Event Time Altitude Azimuth Distance (km) Brightness Sun altitude
Rises 22:53:15 0° 234° (SW) 2,954 ? -16.1°
Reaches altitude 10° 22:55:41 10° 240° (WSW) 2,036 ? -16.6°
Maximum altitude 23:00:06 42° 310° (NW) 909 ? -17.6°
Enters shadow 23:03:09 18° 13° (NNE) 1,539 ? -18.2°
Drops below altitude 10° 23:04:27 10° 21° (NNE) 1,994 - -18.5°
Sets 23:06:50 0° 28° (NNE) 2,886 - -19.0°
